Flag for China Weather past 2 weeks in Langfang, Hebei, China

Now
77 °F

Sunny.


Feels Like: 79 °F
Forecast: 66 / 82 °F
Wind: 1 mph from North

Location: Beijing Airport

Current Time: Aug 29, 2014 at 11:18:46 AM

Latest Report: Aug 29, 2014 at 10:30 AM


Visibility: 10 mi

Pressure: 30.01 "Hg

Humidity: 65%

Dew point: 64 °F

Location of LangfangLocation

Historic Weather in Langfang — Graph

°F

Langfang temperature yesterday

Maximum temperature yesterday: 86 °F (at 1:30 PM)
Minimum temperature yesterday: 66 °F (at 10:00 PM)
Average temperature yesterday: 76 °F

Past Weeks' High & Low Weather Summary

 TemperatureHumidityPressure
High97 °F (Aug 26, 2:30 PM)94% (Aug 15, 2:00 AM)30.01 "Hg (Aug 15, 2:00 AM)
Low61 °F (Aug 26, 4:30 AM)14% (Aug 26, 2:30 PM)29.62 "Hg (Aug 23, 2:00 PM)
Average79 °F62%29.81 "Hg
* Reported Aug 14 10:00 AM — Aug 29 10:00 AM, Langfang, Weather by CustomWeather, © 2014

Note: Actual official high and low records may vary slightly from our data, if they occured in-between our weather recording intervals... More about our weather records

Advertising

Langfang weather history for previous 24 hours

 ConditionsComfort  
Time TempWeatherWind HumidityBarometerVisibility
10:00 AM
Aug 29
75 °FClear.3 mph74%30.01 "Hg4 mi
9:30 AM75 °FClear.3 mph74%30.01 "Hg4 mi
9:00 AM73 °FClear.1 mph74%30.01 "Hg4 mi
8:30 AM72 °FClear.1 mph78%30.01 "Hg4 mi
8:00 AM70 °FClear.1 mph83%30.01 "Hg4 mi
7:30 AM68 °FClear.3 mph88%29.98 "Hg4 mi
7:00 AM66 °FClear.1 mph94%29.98 "Hg4 mi
6:30 AM66 °FClear.1 mph94%30.01 "Hg4 mi
6:00 AM66 °FFog.3 mph94%29.98 "Hg3 mi
5:30 AM66 °FFog.1 mph94%29.98 "Hg3 mi
5:00 AM66 °FFog.3 mph94%29.98 "Hg3 mi
4:30 AM66 °FFog.1 mph94%29.98 "Hg3 mi
4:00 AM66 °FFog.3 mph94%29.98 "Hg3 mi
3:30 AM66 °FFog.3 mph94%29.98 "Hg3 mi
3:00 AM66 °FSprinkles. Fog.1 mph94%29.98 "Hg3 mi
2:30 AM68 °FThunderstorms. Fog.3 mph88%30.01 "Hg3 mi
2:00 AM68 °FThunderstorms. Fog.8 mph94%30.01 "Hg3 mi
1:30 AM66 °FSprinkles. Passing clouds.6 mph94%29.98 "Hg4 mi
1:00 AM66 °FFog.3 mph94%29.98 "Hg3 mi
12:30 AM66 °FFog.6 mph94%29.98 "Hg3 mi
12:00 AM66 °FFog.3 mph94%29.98 "Hg3 mi
11:30 PM
Aug 28
66 °FSprinkles. Fog.6 mph94%29.98 "Hg3 mi
11:00 PM66 °FThunderstorms. Passing clouds.3 mph94%30.01 "Hg4 mi
10:30 PM68 °FThunderstorms. Passing clouds.6 mph88%30.01 "Hg4 mi
10:00 PM66 °FClear.6 mph94%30.01 "Hg5 mi
9:30 PM68 °FThundershowers. Passing clouds.6 mph88%29.98 "Hg5 mi
9:00 PM68 °FThunderstorms. Passing clouds.10 mph88%29.98 "HgN/A
8:30 PM68 °FThunderstorms. Passing clouds.15 mph88%29.98 "Hg5 mi
8:00 PM68 °FThunderstorms. Fog.15 mph94%29.92 "Hg2 mi
7:30 PM73 °FThunderstorms. Fog.10 mph83%29.92 "Hg2 mi
7:00 PM75 °FThunderstorms. Fog.1 mph83%29.92 "Hg3 mi
6:30 PM77 °FSprinkles. Fog.1 mph79%29.92 "Hg3 mi
6:00 PM79 °FThunderstorms. Passing clouds.3 mph65%29.92 "Hg4 mi
5:30 PM79 °FThunderstorms. Passing clouds.3 mph65%29.92 "Hg4 mi
5:00 PM81 °FSprinkles. Clear.3 mph62%29.92 "Hg5 mi
4:30 PM79 °FSprinkles. Clear.3 mph65%29.92 "HgN/A
4:00 PM81 °FSprinkles. Clear.1 mph58%29.92 "HgN/A
3:30 PM82 °FSunny.1 mph48%29.92 "Hg10 mi
3:00 PM82 °FSprinkles. Clear.1 mph48%29.92 "HgN/A
2:30 PM82 °FSunny.3 mph48%29.95 "Hg10 mi
2:00 PM82 °FSunny.1 mph48%29.95 "Hg10 mi
1:30 PM86 °FSunny.1 mph43%29.95 "Hg10 mi
1:00 PM82 °FSunny.3 mph48%29.98 "Hg10 mi
12:30 PM84 °FSunny.3 mph43%29.98 "Hg10 mi
12:00 PM82 °FPassing clouds.6 mph45%29.98 "HgN/A
11:30 AM79 °FPassing clouds.6 mph51%29.98 "HgN/A
11:00 AM77 °FPassing clouds.8 mph57%29.98 "HgN/A
Weather by CustomWeather, © 2014

See weather overviewHow to use our weather pages